Date String (YYYY-MM-DD hh:mm:ss) UTC,Instrument flags,absolute air pressure of the measurement (hPa),sample flow rate (lpm),inlet stack bypass flow (lpm),air temperature of the measurement (°C),ambient temperature measured by the external sensor (°C),aerosol sample conditioner tube jacket temperature (°C),OPC LED temperature (°C),internal box temperature (°C),relative humidity of the measurement (%),span deviation,mass concentration of particles derived from Lorenz-Mie calculation of OPC scattering (μg/m³),mass concentration of particles derived from Lorenz-Mie calculation of OPC scattering (μg/m³),mass concentration of particles derived from Lorenz-Mie calculation of OPC scattering (μg/m³)
DateTimeUTC,F1_M11,P_M11,Q1_M11,Q2_M11,T1_M11,T2_M11,T3_M11,T4_M11,T5_M11,U1_M11,ZSPAN_M11,X0_M11,X2_M11,X1_M11
2024-03-27 16:00:00,SystemResetWarning,0827.2,5.00,000.00,018.9,018.4,000.0,027.2,020.7,18.3,0000.0,0008.05,0003.82,0003.35
2024-03-27 16:01:00,SystemResetWarning,0827.2,5.00,000.00,018.9,018.4,000.0,027.3,020.7,17.4,0000.0,0008.10,0003.83,0003.35
2024-03-27 16:02:00,SystemResetWarning,0827.3,5.00,000.00,018.9,018.5,000.0,027.3,020.7,17.2,0000.0,0008.00,0003.79,0003.33
2024-03-27 16:03:00,SystemResetWarning,0827.3,5.00,000.00,018.9,018.5,000.0,027.3,020.7,17.8,0000.0,0008.10,0003.77,0003.32
2024-03-27 16:04:00,SystemResetWarning,0827.3,5.00,000.00,018.9,018.5,000.0,027.3,020.7,17.7,0000.0,0008.07,0003.77,0003.33
2024-03-27 16:05:00,SystemResetWarning,0827.3,5.00,000.00,018.9,018.5,000.0,027.3,020.7,17.9,0000.0,0008.04,0003.76,0003.33
2024-03-27 16:06:00,SystemResetWarning,0827.4,5.00,000.00,018.9,018.5,000.0,027.3,020.7,17.8,0000.0,0007.85,0003.76,0003.33
2024-03-27 16:07:00,SystemResetWarning,0827.4,5.00,000.00,019.0,018.5,000.0,027.3,020.7,17.5,0000.0,0007.62,0003.71,0003.30
2024-03-27 16:08:00,SystemResetWarning,0827.4,5.00,000.00,019.0,018.5,000.0,027.3,020.7,17.7,0000.0,0007.04,0003.67,0003.29
2024-03-27 16:09:00,SystemResetWarning,0827.4,4.99,000.00,019.0,018.5,000.0,027.3,020.7,17.3,0000.0,0006.91,0003.64,0003.26
2024-03-27 16:10:00,SystemResetWarning,0827.4,4.99,000.00,019.0,018.6,000.0,027.3,020.7,17.8,0000.0,0006.11,0003.62,0003.24
2024-03-27 16:11:00,SystemResetWarning,0827.4,5.00,000.00,019.0,018.6,000.0,027.3,020.8,18.1,0000.0,0005.75,0003.62,0003.24
2024-03-27 16:12:00,SystemResetWarning,0827.3,5.00,000.00,019.0,018.6,000.0,027.3,020.8,17.9,0000.0,0005.73,0003.61,0003.25
2024-03-27 16:13:00,SystemResetWarning,0827.4,5.01,000.00,019.0,018.6,000.0,027.3,020.8,16.8,0000.0,0005.74,0003.59,0003.23
2024-03-27 16:14:00,SystemResetWarning,0827.4,5.01,000.00,019.0,018.6,000.0,027.4,020.8,16.6,0000.0,0005.52,0003.56,0003.20
2024-03-27 16:15:00,SystemResetWarning,0827.4,4.99,000.00,019.0,018.6,000.0,027.4,020.8,15.9,0000.0,0006.19,0003.52,0003.17
2024-03-27 16:16:00,SystemResetWarning,0827.4,5.00,000.00,019.1,018.6,000.0,027.4,020.8,16.3,0000.0,0006.75,0003.47,0003.13
2024-03-27 16:17:00,SystemResetWarning,0827.4,5.00,000.00,019.1,018.6,000.0,027.4,020.8,15.0,0000.0,0006.66,0003.42,0003.05
2024-03-27 16:18:00,SystemResetWarning,0827.3,4.99,000.00,019.1,018.7,000.0,027.4,020.9,15.7,0000.0,0006.55,0003.37,0002.96
2024-03-27 16:19:00,SystemResetWarning,0827.4,4.99,000.00,019.1,018.7,000.0,027.4,020.9,16.4,0000.0,0006.56,0003.34,0002.89
2024-03-27 16:20:00,SystemResetWarning,0827.4,5.00,000.00,019.1,018.7,000.0,027.4,020.9,16.6,0000.0,0006.66,0003.34,0002.86
2024-03-27 16:21:00,SystemResetWarning,0827.3,5.00,000.00,019.1,018.7,000.0,027.4,020.9,15.3,0000.0,0006.50,0003.28,0002.81
2024-03-27 16:22:00,SystemResetWarning,0827.4,4.99,000.00,019.1,018.7,000.0,027.4,020.9,15.1,0000.0,0006.19,0003.20,0002.71
2024-03-27 16:23:00,SystemResetWarning,0827.4,5.00,000.00,019.1,018.7,000.0,027.4,020.9,15.3,0000.0,0005.91,0003.12,0002.61
2024-03-27 16:24:00,SystemResetWarning,0827.4,5.00,000.00,019.1,018.7,000.0,027.5,020.9,17.4,0000.0,0005.86,0003.11,0002.60
2024-03-27 16:25:00,SystemResetWarning,0827.4,5.01,000.00,019.2,018.7,000.0,027.5,020.9,17.1,0000.0,0005.84,0003.18,0002.68
2024-03-27 16:26:00,SystemResetWarning,0827.4,5.00,000.00,019.2,018.8,000.0,027.5,020.9,16.9,0000.0,0005.64,0003.24,0002.78
2024-03-27 16:27:00,SystemResetWarning,0827.4,5.00,000.00,019.2,018.8,000.0,027.5,020.9,16.2,0000.0,0004.93,0003.31,0002.89
2024-03-27 16:28:00,SystemResetWarning,0827.4,5.01,000.00,019.2,018.8,000.0,027.5,020.9,16.8,0000.0,0005.21,0003.38,0002.99
2024-03-27 16:29:00,SystemResetWarning,0827.6,4.99,000.00,019.2,018.8,000.0,027.5,021.0,17.3,0000.0,0005.45,0003.48,0003.12
2024-03-27 16:30:00,SystemResetWarning,0827.8,4.99,000.00,019.2,018.8,000.0,027.5,021.0,16.7,0000.0,0005.53,0003.52,0003.17
2024-03-27 16:31:00,SystemResetWarning,0828.0,5.00,000.00,019.2,018.8,000.0,027.5,021.0,16.6,0000.0,0005.70,0003.59,0003.21
2024-03-27 16:32:00,SystemResetWarning,0827.7,5.01,000.00,019.2,018.8,000.0,027.5,021.0,16.9,0000.0,0005.81,0003.65,0003.27
2024-03-27 16:33:00,SystemResetWarning,0827.7,5.01,000.00,019.3,018.8,000.0,027.6,021.0,17.5,0000.0,0006.42,0003.75,0003.36
2024-03-27 16:34:00,SystemResetWarning,0827.7,5.01,000.00,019.3,018.9,000.0,027.6,021.0,16.0,0000.0,0007.11,0003.85,0003.42
2024-03-27 16:35:00,SystemResetWarning,0827.7,5.00,000.00,019.3,018.9,000.0,027.6,021.0,17.0,0000.0,0007.28,0003.92,0003.48
2024-03-27 16:36:00,SystemResetWarning,0827.5,4.99,000.00,019.3,018.9,000.0,027.6,021.1,15.4,0000.0,0007.96,0003.95,0003.50
2024-03-27 16:37:00,SystemResetWarning,0827.7,4.99,000.00,019.3,018.9,000.0,027.6,021.1,15.1,0000.0,0009.07,0003.87,0003.43
2024-03-27 16:38:00,SystemResetWarning,0827.5,5.00,000.00,019.3,018.9,000.0,027.6,021.1,16.3,0000.0,0009.43,0003.84,0003.42
2024-03-27 16:39:00,SystemResetWarning,0827.5,5.00,000.00,019.3,018.9,000.0,027.6,021.1,17.0,0000.0,0009.67,0003.83,0003.44
2024-03-27 16:40:00,SystemResetWarning,0827.5,5.00,000.00,019.3,019.0,000.0,027.6,021.1,15.8,0000.0,0009.60,0003.81,0003.43
2024-03-27 16:41:00,SystemResetWarning,0827.5,5.00,000.00,019.4,019.0,000.0,027.7,021.1,15.1,0000.0,0010.01,0003.79,0003.41
2024-03-27 16:42:00,SystemResetWarning,0827.5,5.00,000.00,019.4,019.0,000.0,027.7,021.1,15.3,0000.0,0010.19,0003.75,0003.38
2024-03-27 16:43:00,SystemResetWarning,0827.5,5.00,000.00,019.4,019.0,000.0,027.7,021.1,15.5,0000.0,0010.19,0003.72,0003.33
2024-03-27 16:44:00,SystemResetWarning,0827.6,5.01,000.00,019.4,019.0,000.0,027.7,021.1,15.8,0000.0,0009.98,0003.66,0003.28
2024-03-27 16:45:00,SystemResetWarning,0827.5,4.99,000.00,019.4,019.0,000.0,027.7,021.2,16.0,0000.0,0009.73,0003.64,0003.26
2024-03-27 16:46:00,SystemResetWarning,0827.5,4.99,000.00,019.4,019.0,000.0,027.7,021.2,16.5,0000.0,0009.74,0003.61,0003.22
2024-03-27 16:47:00,SystemResetWarning,0827.5,4.99,000.00,019.4,019.0,000.0,027.7,021.2,16.8,0000.0,0009.14,0003.60,0003.22
2024-03-27 16:48:00,SystemResetWarning,0827.5,5.01,000.00,019.5,019.1,000.0,027.7,021.2,16.0,0000.0,0008.66,0003.67,0003.26
2024-03-27 16:49:00,SystemResetWarning,0827.5,5.01,000.00,019.5,019.1,000.0,027.8,021.2,16.5,0000.0,0008.51,0003.67,0003.28
2024-03-27 16:50:00,SystemResetWarning,0827.5,5.01,000.00,019.5,019.1,000.0,027.8,021.2,15.6,0000.0,0008.14,0003.64,0003.25
2024-03-27 16:51:00,SystemResetWarning,0827.5,5.00,000.00,019.5,019.1,000.0,027.8,021.3,15.3,0000.0,0008.11,0003.64,0003.23
2024-03-27 16:52:00,SystemResetWarning,0827.6,5.00,000.00,019.5,019.1,000.0,027.8,021.3,14.6,0000.0,0007.72,0003.63,0003.22
2024-03-27 16:53:00,SystemResetWarning,0827.6,5.01,000.00,019.5,019.1,000.0,027.8,021.3,14.4,0000.0,0007.42,0003.61,0003.20
2024-03-27 16:54:00,SystemResetWarning,0827.6,5.00,000.00,019.5,019.2,000.0,027.8,021.3,14.3,0000.0,0007.31,0003.56,0003.18
2024-03-27 16:55:00,SystemResetWarning,0827.6,4.99,000.00,019.5,019.2,000.0,027.8,021.3,14.2,0000.0,0007.30,0003.55,0003.15
2024-03-27 16:56:00,SystemResetWarning,0827.7,4.99,000.00,019.6,019.2,000.0,027.8,021.3,14.1,0000.0,0007.12,0003.49,0003.11
2024-03-27 16:57:00,SystemResetWarning,0827.7,5.00,000.00,019.6,019.2,000.0,027.9,021.3,14.5,0000.0,0006.94,0003.43,0003.03
2024-03-27 16:58:00,SystemResetWarning,0827.7,5.00,000.00,019.6,019.2,000.0,027.9,021.4,14.3,0000.0,0006.79,0003.35,0002.89
2024-03-27 16:59:00,SystemResetWarning,0827.7,5.00,000.00,019.6,019.2,000.0,027.9,021.4,14.3,0000.0,0005.54,0003.29,0002.77
